Location: Moscow
(55.7500°N, 37.5830°E)
Time: 04:52:20
(UTC+03:00)

Vanguard 1 - Pass Details

Date: 30 November 2021
Orbit: 652 x 3830 km, 34.2° (Epoch: 21 January)

Event Time Altitude Azimuth Distance (km) Brightness Sun altitude
Rises 22:03:18 0° 170° (S) 7,519 - -47.8°
Reaches altitude 10° 22:14:20 10° 145° (SE) 6,882 - -49.0°
Maximum altitude 22:20:47 12° 129° (SE) 6,761 - -49.6°
Drops below altitude 10° 22:27:11 10° 112° (ESE) 6,850 - -50.2°
Sets 22:37:48 0° 88° (E) 7,454 - -51.2°
